Terug naar catalogus

FENGYUN 1C DEB

ActiefPO
NORAD 31348·DEBRIS·🇨🇳 China

Gelanceerd May 10, 1999 vanaf Taiyuan Satellite Launch Center

Loading…

Volgende Passages (komende 24 uur)

TLE

VersSource: Space-Track

Epoch: Sep 14, 2026, 10:14 UTC

1 31348U 99025BRC 26257.42691516  .00002205  00000-0  77502-3 0  9993
2 31348  99.1483 229.2713 0033346 344.8120 169.3525 14.35740127  1952

Volg FENGYUN 1C DEB in realtime met AllMySat

Download on the App Store